• en Belgique
  • Liste des pays
  • À 7 jours
  • Température de l'eau
  • Carte satellitaire
  • Carte météo
  • Widgets météo
  • user-avatar
    Se connecter

    Météo par heure à Rogajny

    Ce jour, 19 Octobre, Vendredi

    Heure Température Précipitation Vent Pression Humidité
    00:00 +12°C° 0 mm 2 m/s 759 mmHg 91%
    01:00 +10°C° 0 mm 2 m/s 759 mmHg 95%
    02:00 +10°C° 0 mm 2 m/s 759 mmHg 95%
    03:00 +10°C° 0 mm 2 m/s 759 mmHg 96%
    04:00 +10°C° 0 mm 3 m/s 759 mmHg 97%
    05:00 +10°C° 0 mm 3 m/s 760 mmHg 96%
    06:00 +10°C° 0 mm 3 m/s 760 mmHg 95%
    07:00 +10°C° 0 mm 3 m/s 760 mmHg 95%
    08:00 +11°C° 0 mm 3 m/s 760 mmHg 85%
    09:00 +12°C° 0 mm 3 m/s 760 mmHg 76%
    10:00 +13°C° 0 mm 3 m/s 761 mmHg 67%
    11:00 +14°C° 0 mm 3 m/s 761 mmHg 63%
    12:00 +14°C° 0 mm 3 m/s 761 mmHg 59%
    13:00 +16°C° 0 mm 3 m/s 761 mmHg 55%
    14:00 +14°C° 0 mm 3 m/s 761 mmHg 59%
    15:00 +13°C° 0 mm 3 m/s 761 mmHg 63%
    16:00 +13°C° 0 mm 2 m/s 761 mmHg 67%
    17:00 +12°C° 0 mm 2 m/s 761 mmHg 73%
    18:00 +9°C° 0 mm 2 m/s 761 mmHg 78%
    19:00 +9°C° 0 mm 1 m/s 761 mmHg 84%
    20:00 +9°C° 0 mm 1 m/s 761 mmHg 85%
    21:00 +8°C° 0 mm 1 m/s 762 mmHg 87%
    22:00 +8°C° 0 mm 1 m/s 762 mmHg 88%
    23:00 +8°C° 0 mm 1 m/s 762 mmHg 88%

    Demain, 20 Octobre, Samedi

    Heure Température Précipitation Vent Pression Humidité
    00:00 +8°C° 0 mm 1 m/s 762 mmHg 88%
    01:00 +7°C° 0 mm 1 m/s 762 mmHg 89%
    02:00 +7°C° 0 mm 1 m/s 762 mmHg 89%
    03:00 +7°C° 0 mm 1 m/s 762 mmHg 89%
    04:00 +6°C° 0 mm 2 m/s 762 mmHg 89%
    05:00 +6°C° 0 mm 2 m/s 762 mmHg 88%
    06:00 +6°C° 0 mm 2 m/s 762 mmHg 87%
    07:00 +6°C° 0 mm 2 m/s 762 mmHg 86%
    08:00 +8°C° 0 mm 3 m/s 762 mmHg 78%
    09:00 +9°C° 0 mm 3 m/s 762 mmHg 71%
    10:00 +11°C° 0 mm 3 m/s 762 mmHg 64%
    11:00 +12°C° 0 mm 4 m/s 762 mmHg 62%
    12:00 +12°C° 0 mm 4 m/s 762 mmHg 61%
    13:00 +13°C° 0 mm 4 m/s 762 mmHg 59%
    14:00 +12°C° 0 mm 4 m/s 762 mmHg 62%
    15:00 +11°C° 0 mm 4 m/s 762 mmHg 64%
    16:00 +11°C° 0 mm 4 m/s 761 mmHg 67%
    17:00 +10°C° 0.1 mm 4 m/s 761 mmHg 70%
    18:00 +10°C° 0.1 mm 4 m/s 761 mmHg 72%
    19:00 +8°C° 0.1 mm 4 m/s 761 mmHg 75%
    20:00 +8°C° 0.2 mm 4 m/s 761 mmHg 79%
    21:00 +7°C° 0.2 mm 4 m/s 761 mmHg 84%
    22:00 +7°C° 0.2 mm 4 m/s 761 mmHg 88%
    23:00 +7°C° 0 mm 4 m/s 761 mmHg 89%

    Après-demain, 21 Octobre, Dimanche

    Heure Température Précipitation Vent Pression Humidité
    00:00 +6°C° 0 mm 4 m/s 761 mmHg 90%
    01:00 +7°C° 0 mm 3 m/s 761 mmHg 92%
    02:00 +7°C° 0 mm 3 m/s 761 mmHg 92%
    03:00 +7°C° 0 mm 3 m/s 761 mmHg 92%
    04:00 +7°C° 0 mm 3 m/s 761 mmHg 93%
    05:00 +7°C° 0 mm 3 m/s 761 mmHg 93%
    06:00 +7°C° 0 mm 3 m/s 761 mmHg 93%
    07:00 +7°C° 0 mm 3 m/s 762 mmHg 93%
    08:00 +8°C° 0 mm 3 m/s 762 mmHg 86%
    09:00 +10°C° 0 mm 3 m/s 762 mmHg 79%
    10:00 +11°C° 0 mm 3 m/s 762 mmHg 72%
    11:00 +12°C° 0 mm 3 m/s 762 mmHg 69%
    12:00 +12°C° 0 mm 3 m/s 762 mmHg 67%
    13:00 +12°C° 0 mm 3 m/s 762 mmHg 65%
    14:00 +13°C° 0 mm 2 m/s 762 mmHg 68%
    15:00 +12°C° 0 mm 2 m/s 762 mmHg 71%
    16:00 +10°C° 0 mm 2 m/s 762 mmHg 74%
    17:00 +10°C° 0 mm 1 m/s 762 mmHg 79%
    18:00 +9°C° 0 mm 1 m/s 762 mmHg 83%
    19:00 +8°C° 0 mm 1 m/s 762 mmHg 87%
    20:00 +8°C° 0 mm 1 m/s 762 mmHg 88%
    21:00 +8°C° 0 mm 1 m/s 762 mmHg 89%
    22:00 +7°C° 0 mm 2 m/s 762 mmHg 89%
    23:00 +6°C° 0 mm 2 m/s 762 mmHg 90%

    22 Octobre, Lundi

    Heure Température Précipitation Vent Pression Humidité
    00:00 +5°C° 0 mm 3 m/s 762 mmHg 91%
    01:00 +5°C° 0 mm 3 m/s 762 mmHg 91%
    02:00 +5°C° 0 mm 3 m/s 762 mmHg 92%
    03:00 +5°C° 0 mm 3 m/s 761 mmHg 92%
    04:00 +4°C° 0 mm 4 m/s 761 mmHg 93%
    05:00 +4°C° 0 mm 4 m/s 761 mmHg 92%
    06:00 +4°C° 0 mm 4 m/s 761 mmHg 92%
    07:00 +4°C° 0 mm 4 m/s 760 mmHg 92%
    08:00 +6°C° 0 mm 5 m/s 760 mmHg 85%
    09:00 +8°C° 0 mm 5 m/s 760 mmHg 79%
    10:00 +9°C° 0 mm 6 m/s 760 mmHg 73%
    11:00 +9°C° 0.2 mm 6 m/s 760 mmHg 75%
    12:00 +9°C° 0.2 mm 5 m/s 759 mmHg 77%
    13:00 +9°C° 0.2 mm 5 m/s 759 mmHg 79%
    14:00 +9°C° 0.6 mm 5 m/s 759 mmHg 82%
    15:00 +8°C° 0.6 mm 5 m/s 759 mmHg 85%
    16:00 +8°C° 0.6 mm 5 m/s 759 mmHg 88%
    17:00 +8°C° 0.4 mm 4 m/s 759 mmHg 86%
    18:00 +7°C° 0.4 mm 4 m/s 759 mmHg 83%
    19:00 +7°C° 0.4 mm 4 m/s 759 mmHg 81%
    20:00 +6°C° 0 mm 4 m/s 759 mmHg 80%
    21:00 +7°C° 0 mm 3 m/s 759 mmHg 80%
    22:00 +7°C° 0 mm 3 m/s 759 mmHg 80%
    23:00 +5°C° 0 mm 3 m/s 759 mmHg 81%

    23 Octobre, Mardi

    Heure Température Précipitation Vent Pression Humidité
    00:00 +5°C° 0 mm 3 m/s 759 mmHg 81%
    01:00 +5°C° 0 mm 3 m/s 759 mmHg 82%
    02:00 +5°C° 0 mm 3 m/s 759 mmHg 83%
    03:00 +4°C° 0 mm 3 m/s 758 mmHg 85%
    04:00 +4°C° 0 mm 3 m/s 758 mmHg 86%
    05:00 +4°C° 0 mm 3 m/s 758 mmHg 87%
    06:00 +4°C° 0 mm 4 m/s 757 mmHg 87%
    07:00 +4°C° 0 mm 4 m/s 757 mmHg 88%
    08:00 +5°C° 0 mm 5 m/s 757 mmHg 82%
    09:00 +6°C° 0 mm 5 m/s 756 mmHg 75%
    10:00 +8°C° 0 mm 6 m/s 756 mmHg 69%
    11:00 +8°C° 0.2 mm 7 m/s 755 mmHg 68%
    12:00 +7°C° 0.2 mm 8 m/s 754 mmHg 67%
    13:00 +8°C° 0.2 mm 9 m/s 753 mmHg 66%
    14:00 +7°C° 0.6 mm 8 m/s 753 mmHg 71%
    15:00 +7°C° 0.6 mm 8 m/s 752 mmHg 76%
    16:00 +6°C° 0.6 mm 8 m/s 751 mmHg 81%
    17:00 +6°C° 0.3 mm 8 m/s 751 mmHg 80%
    18:00 +6°C° 0.3 mm 7 m/s 751 mmHg 80%
    19:00 +7°C° 0.3 mm 6 m/s 750 mmHg 79%
    20:00 +5°C° 0 mm 6 m/s 750 mmHg 79%
    21:00 +5°C° 0 mm 6 m/s 750 mmHg 78%
    22:00 +4°C° 0 mm 6 m/s 750 mmHg 77%
    23:00 +4°C° 0.2 mm 6 m/s 749 mmHg 78%

    24 Octobre, Mercredi

    Heure Température Précipitation Vent Pression Humidité
    00:00 +5°C° 0.2 mm 5 m/s 748 mmHg 79%
    01:00 +5°C° 0.2 mm 5 m/s 748 mmHg 80%
    02:00 +4°C° 1.4 mm 6 m/s 746 mmHg 83%
    03:00 +5°C° 1.4 mm 8 m/s 744 mmHg 86%
    04:00 +6°C° 1.4 mm 9 m/s 742 mmHg 89%
    05:00 +7°C° 1 mm 9 m/s 741 mmHg 88%
    06:00 +9°C° 1 mm 10 m/s 740 mmHg 86%
    07:00 +11°C° 1 mm 10 m/s 738 mmHg 84%
    08:00 +11°C° 0.5 mm 10 m/s 738 mmHg 81%
    09:00 +11°C° 0.5 mm 10 m/s 738 mmHg 77%
    10:00 +11°C° 0.5 mm 10 m/s 738 mmHg 73%
    11:00 +9°C° 0.3 mm 11 m/s 738 mmHg 68%
    12:00 +9°C° 0.3 mm 12 m/s 738 mmHg 63%
    13:00 +9°C° 0.3 mm 13 m/s 739 mmHg 58%
    14:00 +8°C° 0.2 mm 13 m/s 739 mmHg 61%
    15:00 +7°C° 0.2 mm 13 m/s 740 mmHg 63%
    16:00 +5°C° 0.2 mm 13 m/s 740 mmHg 65%
    17:00 +5°C° 0.6 mm 13 m/s 742 mmHg 67%
    18:00 +5°C° 0.6 mm 12 m/s 743 mmHg 68%
    19:00 +5°C° 0.6 mm 12 m/s 744 mmHg 70%
    20:00 +6°C° 0.3 mm 11 m/s 746 mmHg 70%
    21:00 +6°C° 0.3 mm 10 m/s 747 mmHg 71%
    22:00 +5°C° 0.3 mm 10 m/s 748 mmHg 71%
    23:00 +5°C° 0.2 mm 9 m/s 749 mmHg 71%
    Voir plus